Total_Precipitation_Accumulation
1.44 1.46 1.36 1.33 1.21 1.36 1.64 1.84 1.80 1.96 2.09 1.91 1.66 1.53 1.39 1.25 1.18 1.19 1.33 1.52 1.40 1.43 1.65 1.74 1.70 1.58 1.52 1.35 1.18 1.08 1.01 0.94 0.78 0.57 0.46 0.44 0.40 0.31 0.26 0.27 0.26 0.25 0.20
1.65 1.67 1.55 1.46 1.23 1.31 1.54 1.79 1.83 1.98 1.97 1.98 1.61 1.50 1.38 1.37 1.26 1.23 1.33 1.50 1.45 1.31 1.36 1.59 1.75 1.81 1.78 1.65 1.43 1.19 1.08 1.02 0.87 0.66 0.50 0.46 0.42 0.38 0.37 0.37 0.34 0.26 0.18
1.92 1.92 1.74 1.49 1.37 1.55 1.65 1.66 1.71 2.07 1.91 1.77 1.56 1.62 1.57 1.51 1.35 1.28 1.34 1.43 1.27 1.21 1.18 1.26 1.49 1.70 1.93 1.94 1.77 1.54 1.29 1.10 0.93 0.71 0.55 0.44 0.38 0.36 0.36 0.38 0.40 0.34 0.22
1.91 2.03 1.72 1.42 1.58 1.77 1.73 1.65 1.70 1.92 1.91 1.97 1.85 1.72 1.61 1.48 1.18 1.14 1.15 1.12 1.16 0.97 1.06 1.25 1.37 1.45 1.81 2.06 2.11 2.05 1.70 1.34 1.03 0.77 0.61 0.49 0.42 0.36 0.31 0.29 0.31 0.35 0.26
1.33 1.37 1.06 0.99 1.27 1.35 1.23 1.20 1.46 1.61 1.61 1.74 1.74 1.51 1.31 1.15 0.98 0.93 0.94 0.80 0.89 0.89 0.90 1.12 1.31 1.37 1.70 2.10 2.50 2.61 2.29 1.86 1.42 1.04 0.87 0.72 0.58 0.44 0.34 0.30 0.26 0.29 0.26
0.87 0.90 0.73 0.73 0.99 1.05 0.97 1.09 1.20 1.24 1.18 1.25 1.16 0.93 0.89 0.77 0.78 0.74 0.65 0.66 0.67 0.68 0.79 0.95 1.17 1.09 1.46 1.91 2.33 2.55 2.53 2.29 1.84 1.50 1.31 1.10 0.92 0.68 0.45 0.33 0.30 0.29 0.24
0.75 0.83 0.72 0.80 0.95 0.95 0.92 0.98 1.04 0.97 0.81 0.98 1.04 0.76 0.60 0.56 0.58 0.54 0.51 0.51 0.47 0.53 0.71 0.91 1.08 1.13 1.06 1.19 1.58 1.92 2.36 2.58 2.25 1.84 1.64 1.47 1.29 1.00 0.70 0.53 0.40 0.32 0.26
0.63 0.72 0.67 0.58 0.63 0.66 0.61 0.65 0.82 0.84 0.74 0.87 0.96 0.84 0.61 0.56 0.50 0.38 0.42 0.42 0.42 0.52 0.65 0.74 0.95 1.13 1.12 1.28 1.06 1.22 1.79 2.26 2.50 2.37 2.06 1.70 1.43 1.16 0.93 0.78 0.58 0.43 0.35
0.39 0.47 0.50 0.50 0.55 0.62 0.61 0.61 0.65 0.69 0.63 0.64 0.79 0.90 0.71 0.50 0.42 0.38 0.39 0.39 0.45 0.58 0.67 0.80 0.87 0.94 1.04 1.24 1.24 1.15 1.39 1.55 2.17 2.61 2.43 1.94 1.42 1.10 0.98 0.98 0.87 0.61 0.49
0.27 0.30 0.34 0.34 0.41 0.52 0.59 0.55 0.55 0.58 0.57 0.50 0.56 0.65 0.66 0.61 0.54 0.42 0.40 0.44 0.48 0.59 0.74 0.84 0.93 0.96 0.98 1.08 1.23 1.22 1.10 1.13 1.50 2.02 2.27 2.16 1.73 1.30 1.08 1.14 1.35 1.23 0.86
0.26 0.27 0.28 0.29 0.32 0.36 0.40 0.43 0.49 0.52 0.54 0.50 0.49 0.56 0.63 0.66 0.65 0.57 0.47 0.46 0.44 0.41 0.56 0.75 0.90 0.95 0.91 1.01 1.22 1.26 1.22 1.12 1.03 1.13 1.52 1.82 1.82 1.57 1.32 1.38 1.78 2.01 1.78
0.26 0.29 0.30 0.31 0.33 0.33 0.34 0.37 0.40 0.44 0.50 0.54 0.53 0.56 0.65 0.70 0.66 0.65 0.57 0.50 0.47 0.42 0.47 0.65 0.90 1.03 1.00 1.01 0.93 0.95 0.97 0.88 0.83 0.83 0.95 1.15 1.39 1.50 1.51 1.62 1.94 2.27 2.42
0.23 0.27 0.32 0.34 0.37 0.37 0.37 0.38 0.39 0.41 0.48 0.56 0.56 0.55 0.57 0.63 0.69 0.71 0.65 0.57 0.59 0.59 0.69 0.73 0.81 0.94 0.91 0.96 0.91 0.77 0.61 0.56 0.54 0.57 0.72 0.89 1.10 1.33 1.47 1.53 1.74 2.00 2.19
0.24 0.28 0.29 0.30 0.34 0.36 0.38 0.40 0.37 0.37 0.47 0.56 0.61 0.69 0.66 0.59 0.74 0.82 0.78 0.77 0.74 0.78 0.94 0.88 0.80 0.80 0.83 0.87 0.77 0.65 0.49 0.43 0.40 0.39 0.44 0.47 0.55 0.69 0.83 0.97 1.14 1.34 1.52
0.26 0.28 0.29 0.31 0.32 0.35 0.38 0.40 0.41 0.45 0.52 0.56 0.64 0.78 0.84 0.79 0.78 0.84 0.89 0.94 0.98 0.95 0.94 0.90 0.80 0.74 0.72 0.70 0.63 0.54 0.42 0.38 0.37 0.35 0.34 0.34 0.36 0.42 0.46 0.51 0.57 0.67 0.74
0.23 0.28 0.34 0.36 0.35 0.37 0.44 0.51 0.50 0.51 0.59 0.68 0.81 0.90 0.94 0.96 0.95 0.88 0.91 0.96 0.98 1.04 1.01 0.85 0.78 0.79 0.71 0.55 0.52 0.47 0.40 0.42 0.39 0.36 0.33 0.31 0.30 0.35 0.39 0.40 0.38 0.41 0.46
0.23 0.26 0.32 0.36 0.38 0.45 0.63 0.80 0.79 0.71 0.76 0.85 0.95 1.05 1.10 1.15 1.14 1.02 0.97 0.94 0.95 1.03 0.98 0.83 0.77 0.79 0.68 0.52 0.46 0.43 0.41 0.40 0.36 0.37 0.33 0.29 0.28 0.29 0.32 0.35 0.34 0.33 0.34
0.21 0.20 0.23 0.28 0.31 0.37 0.53 0.85 1.02 1.04 1.01 0.94 1.00 1.18 1.27 1.23 1.12 1.04 1.03 0.98 0.97 1.06 1.00 0.91 0.89 0.83 0.75 0.66 0.56 0.50 0.43 0.39 0.38 0.39 0.35 0.30 0.28 0.27 0.27 0.27 0.27 0.27 0.28
0.23 0.22 0.24 0.29 0.33 0.34 0.40 0.60 0.83 0.96 0.98 0.95 1.01 1.06 1.09 1.15 1.12 1.04 0.98 0.95 0.94 1.04 1.04 0.95 1.02 1.00 0.90 0.78 0.65 0.54 0.47 0.44 0.39 0.37 0.38 0.35 0.32 0.27 0.25 0.25 0.25 0.25 0.24
0.24 0.26 0.29 0.32 0.34 0.31 0.32 0.44 0.60 0.71 0.77 0.82 0.87 0.91 0.93 0.97 1.03 1.09 1.03 0.97 0.99 1.01 1.02 1.01 1.05 1.18 1.09 0.92 0.74 0.61 0.52 0.48 0.44 0.34 0.35 0.38 0.37 0.32 0.28 0.25 0.24 0.23 0.25
0.26 0.30 0.34 0.35 0.33 0.30 0.33 0.44 0.49 0.46 0.51 0.57 0.60 0.61 0.72 0.87 0.96 1.02 0.97 0.95 1.00 1.00 1.00 1.05 1.08 1.21 1.24 1.07 0.83 0.64 0.56 0.54 0.52 0.46 0.39 0.32 0.30 0.27 0.25 0.26 0.26 0.24 0.22
0.32 0.35 0.36 0.41 0.39 0.30 0.32 0.36 0.33 0.30 0.34 0.39 0.42 0.41 0.42 0.53 0.70 0.83 0.85 0.85 0.91 0.96 1.00 1.02 1.09 1.17 1.23 1.13 0.95 0.81 0.67 0.56 0.53 0.52 0.53 0.47 0.37 0.31 0.26 0.22 0.24 0.25 0.25
0.41 0.45 0.43 0.43 0.41 0.38 0.31 0.25 0.21 0.22 0.25 0.32 0.36 0.36 0.29 0.28 0.42 0.57 0.68 0.72 0.73 0.73 0.82 0.97 1.08 1.09 1.20 1.24 1.16 0.97 0.85 0.73 0.59 0.56 0.60 0.60 0.52 0.41 0.32 0.28 0.32 0.27 0.26
0.52 0.51 0.50 0.51 0.55 0.50 0.37 0.26 0.20 0.18 0.22 0.29 0.33 0.33 0.33 0.33 0.36 0.43 0.54 0.63 0.67 0.64 0.62 0.71 0.87 1.06 1.21 1.36 1.33 1.22 1.11 0.98 0.81 0.71 0.66 0.65 0.60 0.52 0.43 0.35 0.36 0.31 0.28
0.71 0.67 0.65 0.65 0.68 0.69 0.56 0.38 0.29 0.25 0.29 0.31 0.35 0.36 0.36 0.34 0.32 0.29 0.37 0.44 0.50 0.59 0.59 0.61 0.72 0.94 1.13 1.27 1.42 1.36 1.23 1.03 0.86 0.74 0.65 0.58 0.56 0.57 0.53 0.43 0.37 0.36 0.31
0.88 0.87 0.86 0.85 0.84 0.88 0.75 0.49 0.40 0.38 0.43 0.44 0.49 0.48 0.38 0.31 0.26 0.21 0.29 0.38 0.41 0.44 0.54 0.59 0.65 0.77 0.93 1.05 1.19 1.19 1.05 0.97 0.81 0.69 0.59 0.52 0.47 0.51 0.56 0.50 0.42 0.36 0.33